When you browse on this site, cookies collect data to enhance your experience and personalize the content and advertising you see.
Visit our Privacy Policy to learn more. By continuing to use the site, you agree to this use of cookies and data.
  • In United Kingdom
  • List of Countries
  • For 7 days
  • Water Temperature
  • Weather Map
  • Weather Widgets
  • user-avatar
    Login

    Hourly Weather Piilo

    Today, 19 August, Monday

    Time Temperature Precipitation Wind Pressure Humidity
    00:00 +18°C° 0 mm 2 mps 735 mmHg 72%
    01:00 +17°C° 0 mm 2 mps 736 mmHg 70%
    02:00 +17°C° 0 mm 2 mps 736 mmHg 69%
    03:00 +17°C° 0 mm 2 mps 736 mmHg 69%
    04:00 +17°C° 0 mm 2 mps 736 mmHg 70%
    05:00 +17°C° 0 mm 2 mps 736 mmHg 70%
    06:00 +20°C° 0 mm 1 mps 736 mmHg 67%
    07:00 +21°C° 0 mm 1 mps 736 mmHg 65%
    08:00 +23°C° 0 mm 1 mps 737 mmHg 62%
    09:00 +25°C° 0 mm 1 mps 737 mmHg 58%
    10:00 +27°C° 0 mm 1 mps 737 mmHg 53%
    11:00 +29°C° 0 mm 1 mps 737 mmHg 48%
    12:00 +30°C° 0 mm 1 mps 737 mmHg 46%
    13:00 +31°C° 0 mm 2 mps 737 mmHg 45%
    14:00 +31°C° 0 mm 2 mps 737 mmHg 44%
    15:00 +31°C° 0 mm 2 mps 737 mmHg 46%
    16:00 +31°C° 0 mm 2 mps 737 mmHg 48%
    17:00 +31°C° 0 mm 1 mps 736 mmHg 50%
    18:00 +28°C° 0 mm 1 mps 736 mmHg 57%
    19:00 +26°C° 0 mm 2 mps 737 mmHg 64%
    20:00 +24°C° 0 mm 2 mps 737 mmHg 71%
    21:00 +23°C° 0 mm 2 mps 737 mmHg 72%
    22:00 +22°C° 0 mm 1 mps 737 mmHg 74%
    23:00 +21°C° 0 mm 1 mps 737 mmHg 76%

    Tomorrow, 20 August, Tuesday

    Time Temperature Precipitation Wind Pressure Humidity
    00:00 +21°C° 0 mm 1 mps 737 mmHg 77%
    01:00 +20°C° 0 mm 1 mps 737 mmHg 79%
    02:00 +20°C° 0 mm 1 mps 737 mmHg 80%
    03:00 +20°C° 0 mm 1 mps 737 mmHg 81%
    04:00 +19°C° 0 mm 1 mps 737 mmHg 83%
    05:00 +19°C° 0 mm 1 mps 738 mmHg 84%
    06:00 +19°C° 0 mm 2 mps 738 mmHg 83%
    07:00 +20°C° 0 mm 2 mps 738 mmHg 81%
    08:00 +23°C° 0 mm 2 mps 739 mmHg 80%
    09:00 +24°C° 0 mm 2 mps 739 mmHg 77%
    10:00 +25°C° 0 mm 2 mps 739 mmHg 74%
    11:00 +26°C° 0 mm 2 mps 739 mmHg 71%
    12:00 +27°C° 0 mm 2 mps 739 mmHg 68%
    13:00 +28°C° 0 mm 2 mps 739 mmHg 64%
    14:00 +29°C° 0 mm 1 mps 738 mmHg 61%
    15:00 +29°C° 0.3 mm 1 mps 738 mmHg 61%
    16:00 +29°C° 0.3 mm 1 mps 738 mmHg 61%
    17:00 +29°C° 0.3 mm 1 mps 738 mmHg 61%
    18:00 +27°C° 0.2 mm 1 mps 738 mmHg 67%
    19:00 +25°C° 0.2 mm 1 mps 738 mmHg 74%
    20:00 +24°C° 0.2 mm 1 mps 738 mmHg 80%
    21:00 +23°C° 0 mm 1 mps 738 mmHg 81%
    22:00 +22°C° 0 mm 1 mps 738 mmHg 83%
    23:00 +22°C° 0 mm 1 mps 739 mmHg 84%

    Day after tomorrow, 21 August, Wednesday

    Time Temperature Precipitation Wind Pressure Humidity
    00:00 +21°C° 0 mm 1 mps 738 mmHg 85%
    01:00 +21°C° 0 mm 1 mps 738 mmHg 85%
    02:00 +20°C° 0 mm 1 mps 738 mmHg 85%
    03:00 +20°C° 0 mm 1 mps 738 mmHg 85%
    04:00 +20°C° 0 mm 1 mps 738 mmHg 86%
    05:00 +20°C° 0 mm 1 mps 738 mmHg 86%
    06:00 +21°C° 0 mm 1 mps 738 mmHg 81%
    07:00 +23°C° 0 mm 1 mps 738 mmHg 76%
    08:00 +24°C° 0 mm 1 mps 739 mmHg 71%
    09:00 +26°C° 0 mm 1 mps 739 mmHg 64%
    10:00 +28°C° 0 mm 2 mps 739 mmHg 56%
    11:00 +30°C° 0 mm 2 mps 739 mmHg 48%
    12:00 +31°C° 0 mm 2 mps 738 mmHg 47%
    13:00 +31°C° 0 mm 2 mps 738 mmHg 46%
    14:00 +32°C° 0 mm 2 mps 738 mmHg 44%
    15:00 +32°C° 0.1 mm 2 mps 738 mmHg 47%
    16:00 +31°C° 0.1 mm 2 mps 738 mmHg 50%
    17:00 +31°C° 0.1 mm 2 mps 738 mmHg 53%
    18:00 +28°C° 0.4 mm 2 mps 738 mmHg 64%
    19:00 +26°C° 0.4 mm 2 mps 738 mmHg 75%
    20:00 +23°C° 0.4 mm 2 mps 738 mmHg 86%
    21:00 +23°C° 0.1 mm 2 mps 738 mmHg 89%
    22:00 +21°C° 0.1 mm 2 mps 739 mmHg 92%
    23:00 +21°C° 0.1 mm 2 mps 739 mmHg 95%

    22 August, Thursday

    Time Temperature Precipitation Wind Pressure Humidity
    00:00 +21°C° 0 mm 2 mps 739 mmHg 96%
    01:00 +20°C° 0 mm 2 mps 739 mmHg 97%
    02:00 +20°C° 0 mm 2 mps 739 mmHg 97%
    03:00 +20°C° 0 mm 2 mps 739 mmHg 97%
    04:00 +20°C° 0 mm 2 mps 739 mmHg 97%
    05:00 +21°C° 0 mm 1 mps 739 mmHg 97%
    06:00 +22°C° 0 mm 1 mps 739 mmHg 94%
    07:00 +22°C° 0 mm 1 mps 739 mmHg 92%
    08:00 +23°C° 0 mm 1 mps 739 mmHg 89%
    09:00 +23°C° 0 mm 1 mps 739 mmHg 86%
    10:00 +24°C° 0 mm 1 mps 739 mmHg 82%
    11:00 +25°C° 0 mm 1 mps 739 mmHg 78%
    12:00 +26°C° 0 mm 1 mps 739 mmHg 75%
    13:00 +26°C° 0 mm 1 mps 739 mmHg 72%
    14:00 +27°C° 0 mm 1 mps 739 mmHg 70%
    15:00 +27°C° 0.1 mm 2 mps 739 mmHg 70%
    16:00 +27°C° 0.1 mm 2 mps 738 mmHg 71%
    17:00 +27°C° 0.1 mm 2 mps 738 mmHg 71%
    18:00 +25°C° 0.7 mm 2 mps 739 mmHg 79%
    19:00 +23°C° 0.7 mm 2 mps 739 mmHg 87%
    20:00 +21°C° 0.7 mm 2 mps 739 mmHg 95%
    21:00 +20°C° 0.2 mm 2 mps 739 mmHg 96%
    22:00 +21°C° 0.2 mm 1 mps 739 mmHg 96%
    23:00 +21°C° 0.2 mm 1 mps 739 mmHg 97%

    23 August, Friday

    Time Temperature Precipitation Wind Pressure Humidity
    00:00 +20°C° 0.3 mm 1 mps 739 mmHg 97%
    01:00 +20°C° 0.3 mm 1 mps 739 mmHg 97%
    02:00 +20°C° 0.3 mm 1 mps 739 mmHg 98%
    03:00 +20°C° 0.1 mm 1 mps 739 mmHg 98%
    04:00 +20°C° 0.1 mm 1 mps 739 mmHg 98%
    05:00 +20°C° 0.1 mm 1 mps 739 mmHg 98%
    06:00 +21°C° 0 mm 1 mps 740 mmHg 97%
    07:00 +21°C° 0 mm 1 mps 740 mmHg 96%
    08:00 +21°C° 0 mm 1 mps 740 mmHg 95%
    09:00 +21°C° 0 mm 1 mps 740 mmHg 93%
    10:00 +22°C° 0 mm 1 mps 740 mmHg 91%
    11:00 +22°C° 0 mm 1 mps 741 mmHg 89%
    12:00 +23°C° 0.1 mm 1 mps 740 mmHg 87%
    13:00 +23°C° 0.1 mm 1 mps 740 mmHg 85%
    14:00 +24°C° 0.1 mm 1 mps 740 mmHg 82%
    15:00 +24°C° 0.2 mm 1 mps 740 mmHg 82%
    16:00 +24°C° 0.2 mm 2 mps 740 mmHg 82%
    17:00 +24°C° 0.2 mm 2 mps 740 mmHg 82%
    18:00 +24°C° 0.2 mm 2 mps 740 mmHg 85%
    19:00 +23°C° 0.2 mm 2 mps 740 mmHg 89%
    20:00 +21°C° 0.2 mm 2 mps 740 mmHg 92%
    21:00 +20°C° 0 mm 2 mps 740 mmHg 92%
    22:00 +20°C° 0 mm 2 mps 741 mmHg 93%
    23:00 +20°C° 0 mm 2 mps 741 mmHg 93%

    24 August, Saturday

    Time Temperature Precipitation Wind Pressure Humidity
    00:00 +19°C° 0 mm 2 mps 741 mmHg 93%
    01:00 +19°C° 0 mm 2 mps 741 mmHg 93%
    02:00 +19°C° 0 mm 2 mps 740 mmHg 93%
    03:00 +19°C° 0 mm 2 mps 740 mmHg 94%
    04:00 +18°C° 0 mm 2 mps 740 mmHg 95%
    05:00 +18°C° 0 mm 2 mps 740 mmHg 96%
    06:00 +19°C° 0 mm 3 mps 740 mmHg 94%
    07:00 +19°C° 0 mm 3 mps 740 mmHg 92%
    08:00 +20°C° 0 mm 4 mps 740 mmHg 89%
    09:00 +21°C° 0 mm 4 mps 740 mmHg 85%
    10:00 +22°C° 0 mm 4 mps 740 mmHg 81%
    11:00 +23°C° 0 mm 4 mps 741 mmHg 77%
    12:00 +25°C° 0 mm 4 mps 740 mmHg 73%
    13:00 +26°C° 0 mm 4 mps 740 mmHg 70%
    14:00 +26°C° 0 mm 4 mps 740 mmHg 66%
    15:00 +26°C° 0 mm 4 mps 740 mmHg 67%
    16:00 +26°C° 0 mm 3 mps 740 mmHg 67%
    17:00 +26°C° 0 mm 3 mps 739 mmHg 68%
    18:00 +25°C° 0 mm 3 mps 739 mmHg 72%
    19:00 +24°C° 0 mm 3 mps 739 mmHg 75%
    20:00 +21°C° 0 mm 3 mps 739 mmHg 79%
    21:00 +21°C° 0 mm 3 mps 739 mmHg 78%
    22:00 +20°C° 0 mm 4 mps 739 mmHg 76%
    23:00 +20°C° 0 mm 4 mps 739 mmHg 74%
    Show more